Header for Extended Forecast Station List Page

Search by: ID | Name | Date | Parm | Value | Avg | % Avg
Sort by: ID | Name | Date | Parm | Value | Avg | % Avg

Enter search or view all records.

Click on id for station plot
#IDNameDateParmValueAvg% Avg
0BULO3BULLY CREEK-BULLY CREEK DAM10-15-2018INFLOW (KAF)22119
1MACI1BIG LOST-MACKAY RESERVOIR NEAR MACKAY10-15-2018INFLOW (KAF)516873
2RIDI1WILLOW CREEK-RIRIE DAM10-15-2018INFLOW (KAF)8899
3LWRI1LITTLE WOOD-LITTLE WOOD DAM10-15-2018INFLOW (KAF)121580
4BERO3MALHEUR-AGENCY VALLEY DAM10-15-2018INFLOW (KAF)111573
5MYKO3MCKAY CREEK-NEAR PILOT ROCK10-15-2018DISCHARGE (KAF)1715110
6DEDI1DEADWOOD-NEAR LOWMAN10-15-2018INFLOW (KAF)161987
7WRMO3MALHEUR-WARM SPRINGS DAM10-15-2018INFLOW (KAF)172088
8HWRI1BIG LOST-AT HOWELL RANCH NEAR CHILLY10-15-2018DISCHARGE (KAF)2921135
9ARDW1ENTIAT-NEAR ARDENVOIR10-15-2018DISCHARGE (KAF)182280
10VALO3MALHEUR-NEAR VALE10-15-2018DISCHARGE (KAF)182474
11HOTI1BRUNEAU-NEAR HOT SPRINGS10-15-2018DISCHARGE (KAF)172764
12MAGI1BIG WOOD-MAGIC DAM10-15-2018INFLOW (KAF)252791
13SATI1ST MARIES-NEAR SANTA10-15-2018DISCHARGE (KAF)143146
14GIBO3UMATILLA-NEAR GIBBON10-15-2018DISCHARGE (KAF)293191
15BUDW1BUMPING-BUMPING LAKE DAM10-15-2018INFLOW (KAF)183550
16BIGI1BOISE-AT GLENWOOD BRIDGE10-15-2018DISCHARGE (KAF)5236147
17STRM8ST. REGIS-NEAR ST. REGIS10-15-2018DISCHARGE (KAF)183749
18TNAW1TEANAWAY-BELOW FORKS10-15-2018DISCHARGE (KAF)103727
19HALI1BIG WOOD-AT HAILEY10-15-2018DISCHARGE (KAF)4040100
20KADW1KACHESS-KACHESS DAM10-15-2018INFLOW (KAF)294466
21RCCM8ROCK CREEK-NEAR CLINTON10-15-2018DISCHARGE (KAF)6349127
22KEDW1YAKIMA-KEECHELUS LAKE10-15-2018INFLOW (KAF)335166
23PIHI1PORTNEUF-AT POCATELLO10-15-2018DISCHARGE (KAF)576194
24DLGM8CLARK FORK-AT DEER LODGE10-15-2018DISCHARGE (KAF)7463118
25EASW1YAKIMA-AT EASTON10-15-2018DISCHARGE (KAF)546583
26RILW1TIETON-RIMROCK LAKE NEAR RIMROCK10-15-2018INFLOW (KAF)366656
27WSRI1WEISER-NEAR WEISER10-15-2018DISCHARGE (KAF)387153
28PDTO3UMATILLA-AT PENDLETON10-15-2018DISCHARGE (KAF)7672106
29NACW1NACHES-NEAR NACHES10-15-2018DISCHARGE (KAF)497466
30ARAI1SF BOISE-ANDERSON RANCH DAM10-15-2018INFLOW (KAF)677492
31UMAO3UMATILLA-NEAR UMATILLA10-15-2018DISCHARGE (KAF)11276148
32OWYO3OWYHEE-OWYHEE DAM10-15-2018INFLOW (KAF)647882
33CSDI1NF PAYETTE-CASCADE DAM10-15-2018INFLOW (KAF)789384
34MONO3NF JOHN DAY-AT MONUMENT10-15-2018DISCHARGE (KAF)619763
35PATW1METHOW-NEAR PATEROS10-15-2018DISCHARGE (KAF)919992
36CLFW1NACHES-NEAR CLIFFDEL10-15-2018DISCHARGE (KAF)6210161
37CLUW1CLE ELUM-CLE ELUM LAKE10-15-2018INFLOW (KAF)5310252
38TEAI1TETON-NEAR ST. ANTHONY10-15-2018DISCHARGE (KAF)9410589
39TCHW1WALLA WALLA-NEAR TOUCHET10-15-2018DISCHARGE (KAF)9110686
40CHEI1FALL RIVER-NEAR CHESTER10-15-2018DISCHARGE (KAF)118112105
41JLKW4SNAKE-JACKSON LAKE AT DAM10-15-2018INFLOW (KAF)10511294
42IPDI1HENRYS FORK-ISLAND PARK DAM10-15-2018INFLOW (KAF)8411771
43LAUW1KETTLE-AT LAURIER10-15-2018DISCHARGE (KAF)8112664
44BONM8BLACKFOOT-NEAR BONNER10-15-2018DISCHARGE (KAF)144135106
45CHDW1CHELAN-LAKE CHELAN DAM10-15-2018INFLOW (KAF)10315666
46WGCM8MF FLATHEAD-NEAR WEST GLACIER10-15-2018DISCHARGE (KAF)12216972
47SERO3JOHN DAY-AT SERVICE CK10-15-2018DISCHARGE (KAF)12918371
48FCFM8NF FLATHEAD-NEAR COLUMBIA FALLS10-15-2018DISCHARGE (KAF)10819356
49PARI1BOISE-NEAR PARMA10-15-2018DISCHARGE (KAF)18120887
50HODO3HOOD-NEAR TUCKER BRIDGE10-15-2018DISCHARGE (KAF)228218105
51BITM8BITTERROOT-NEAR MISSOULA10-15-2018DISCHARGE (KAF)16522773
52UNDW1WHITE SALMON-NEAR UNDERWOOD10-15-2018DISCHARGE (KAF)22622999
53PRTI1PRIEST-NEAR PRIEST RIVER10-15-2018DISCHARGE (KAF)12323752
54UMTW1YAKIMA-AT UMTANUM10-15-2018DISCHARGE (KAF)23824099
55HHWM8SF FLATHEAD-HUNGRY HORSE DAM10-15-2018INFLOW (KAF)13324454
56PITW1KLICKITAT-NEAR PITT10-15-2018DISCHARGE (KAF)21726881
57TONW1OKANOGAN-NEAR TONASKET10-15-2018DISCHARGE (KAF)22028079
58TRYO3GRANDE RONDE-TROY10-15-2018DISCHARGE (KAF)19528369
59PESW1WENATCHEE-AT PESHASTIN10-15-2018DISCHARGE (KAF)16129455
60JKSW4SNAKE-NEAR JACKSON10-15-2018DISCHARGE (KAF)337311108
61ANTI1HENRYS FORK-AT ST. ANTHONY10-15-2018DISCHARGE (KAF)342339101
62ABOM8CLARK FORK-ABOVE MISSOULA10-15-2018DISCHARGE (KAF)377344110
63EMMI1PAYETTE-NEAR EMMETT10-15-2018DISCHARGE (KAF)27734480
64ALPW4SNAKE-NEAR ALPINE10-15-2018DISCHARGE (KAF)395393101
65REXI1HENRYS FORK-AT REXBURG10-15-2018DISCHARGE (KAF)42443099
66PARW1YAKIMA-NEAR PARKER10-15-2018DISCHARGE (KAF)37945084
67DWRI1NF CLEARWATER-DWORSHAK DAM10-15-2018INFLOW (KAF)24549250
68MILI1SNAKE-AT MILNER10-15-2018DISCHARGE (KAF)13954625
69BELM8CLARK FORK-BELOW MISSOULA10-15-2018DISCHARGE (KAF)54457595
70HEII1SNAKE-NEAR HEISE10-15-2018DISCHARGE (KAF)622602103
71PLDI1SF SNAKE-PALISADES DAM10-15-2018INFLOW (KAF)62563498
72COEI1COEUR D ALENE-COEUR D ALENE LAKE10-15-2018INFLOW (KAF)21763634
73ORFI1CLEARWATER-AT OROFINO10-15-2018DISCHARGE (KAF)31364649
74KIOW1YAKIMA-AT KIONA10-15-2018DISCHARGE (KAF)60168288
75SNAI1SNAKE-AT BLACKFOOT10-15-2018DISCHARGE (KAF)764724106
76SRGM8CLARK FORK-AT ST REGIS10-15-2018DISCHARGE (KAF)68975192
77BFTI1SNAKE-NEAR BLACKFOOT10-15-2018DISCHARGE (KAF)782780100
78SHYI1SNAKE-NEAR SHELLEY10-15-2018DISCHARGE (KAF)861800108
79SIFI1SNAKE-AB EAGLE ROCK NR IDAHO FALLS10-15-2018DISCHARGE (KAF)866815106
80LYDM8KOOTENAI-LIBBY DAM10-15-2018INFLOW (KAF)74991282
81WHBI1SALMON-AT WHITEBIRD10-15-2018DISCHARGE (KAF)1053107598
82LLKW1SPOKANE-AT LONGLAKE10-15-2018INFLOW (KAF)518109547
83CFMM8FLATHEAD-AT COLUMBIA FALLS10-15-2018DISCHARGE (KAF)893117976
84MODO3DESCHUTES-AT MOODY NR BIGGS10-15-2018DISCHARGE (KAF)1310136896
85AFRI1SNAKE-AMERICAN FALLS RESERVOIR10-15-2018INFLOW (KAF)1442146698
86KERM8FLATHEAD-KERR DAM10-15-2018INFLOW (KAF)992148767
87SPDI1CLEARWATER-AT SPALDING10-15-2018DISCHARGE (KAF)748154848
88LEOI1KOOTENAI-AT LEONIA10-15-2018DISCHARGE (KAF)24331575154
89SWAI1SNAKE-BELOW SWAN FALLS10-15-2018DISCHARGE (KAF)1918253976
90NOXM8CLARK FORK-NOXON RAPIDS DAM10-15-2018INFLOW (KAF)2713347278
91WEII1SNAKE-AT WEISER10-15-2018DISCHARGE (KAF)2714358676
92CABI1CLARK FORK-CABINET GORGE DAM10-15-2018INFLOW (KAF)2976362482
93BRNI1SNAKE-BROWNLEE DAM10-15-2018INFLOW (KAF)2886368978
94ALFW1PEND OREILLE-ALBENI FALLS DAM10-15-2018INFLOW (KAF)3064422273
95ANAW1SNAKE-NEAR ANATONE10-15-2018DISCHARGE (KAF)3932559570
96LGDW1SNAKE-LOWER GRANITE DAM10-15-2018INFLOW (KAF)4679735364
97IHDW1SNAKE-ICE HARBOR DAM10-15-2018INFLOW (KAF)4715740664
98LGSW1SNAKE-LITTLE GOOSE DAM10-15-2018INFLOW (KAF)4679740763
99LMNW1SNAKE-LOWER MONUMENTAL DAM10-15-2018INFLOW (KAF)4715748163
100GCDW1COLUMBIA-GRAND COULEE DAM10-15-2018INFLOW (KAF)1872617246109
101WANW1COLUMBIA-WANAPUM DAM10-15-2018INFLOW (KAF)1968019558101
102PRWW1COLUMBIA-PRIEST RAPIDS DAM10-15-2018INFLOW (KAF)196781987499
103CHJW1COLUMBIA-CHIEF JOSEPH DAM10-15-2018INFLOW (KAF)186512111988
104WELW1COLUMBIA-WELLS DAM10-15-2018INFLOW (KAF)189592148888
105RRHW1COLUMBIA-ROCKY REACH DAM10-15-2018INFLOW (KAF)195082197989
106MCDW1COLUMBIA-MCNARY DAM10-15-2018INFLOW (KAF)250462923286
107JDAO3COLUMBIA-JOHN DAY DAM10-15-2018INFLOW (KAF)261623012787
108TDAO3COLUMBIA-THE DALLES DAM10-15-2018INFLOW (KAF)268443356880
109BONO3COLUMBIA-BONNEVILLE DAM10-15-2018INFLOW (KAF)275053562177
110BFEI1KOOTENAI-AT BONNERS FERRY10-15-2018STAGE (FT)MMM
111DRMM8CLARK FORK-NR DRUMMOND10-15-2018DISCHARGE (KAF)156MM
112HOPI1PEND OREILLE-PEND OREILLE LAKE NR HOPE10-15-2018LAKE ELEVATION (FT)MMM
113SPOW1SPOKANE-AT SPOKANE10-15-2018DISCHARGE (KAF)334MM
114SJMI1ST JOE-AT ST MARIES10-15-2018STAGE (FT)MMM
115CIBW1COLUMBIA-AT INTL BOUNDARY10-15-2018DISCHARGE (KAF)18065MM
116LUCI1BOISE-LUCKY PEAK DAM10-15-2018INFLOW (KAF)30MM